Terminal Aerodrome Forecast
Issued by NWS Milwaukee/Sullivan, WI

Home | Current Version | Previous Version | Text Only | Print | Product List | Glossary On
Versions: 1 2 3 4 5 6 7 8 9 10 11 12 13 14 15 16 17 18 19 20 21 22 23 24 25 26 27 28 29 30 31 32 33 34 35 36 37 38 39 40 41 42 43 44 45 46 47 48 49 50
000
FTUS43 KMKX 020520
TAFMKE
TAF
KMKE 020520Z 0206/0312 VRB03KT P6SM FEW060 BKN250
     FM020900 00000KT 6SM BR FEW070 SCT250
     FM021300 VRB03KT P6SM FEW035 SCT250
     FM021700 04007KT P6SM FEW050 SCT250
     FM022100 08009KT P6SM SCT050
     FM030300 07003KT P6SM SCT060=

USA.gov is the U.S. government's official web portal to all federal, state and local government web resources and services.